EN

Hourly Weather Kyzylagash

Today, 3 August, Tuesday

Time Temperature Precipitation Wind Pressure Humidity
00:00 +20°C° 0 mm 2 mps 737 mmHg 59%
01:00 +19°C° 0 mm 2 mps 737 mmHg 63%
02:00 +18°C° 0 mm 3 mps 737 mmHg 68%
03:00 +18°C° 0 mm 2 mps 737 mmHg 68%
04:00 +18°C° 0 mm 2 mps 738 mmHg 69%
05:00 +17°C° 0 mm 2 mps 738 mmHg 70%
06:00 +19°C° 0 mm 2 mps 738 mmHg 65%
07:00 +20°C° 0 mm 2 mps 738 mmHg 59%
08:00 +23°C° 0 mm 2 mps 738 mmHg 54%
09:00 +25°C° 0 mm 3 mps 738 mmHg 49%
10:00 +26°C° 0 mm 4 mps 738 mmHg 43%
11:00 +28°C° 0 mm 4 mps 738 mmHg 38%
12:00 +28°C° 0 mm 4 mps 738 mmHg 37%
13:00 +29°C° 0 mm 4 mps 737 mmHg 35%
14:00 +30°C° 0 mm 5 mps 737 mmHg 34%
15:00 +29°C° 0 mm 5 mps 737 mmHg 38%
16:00 +28°C° 0 mm 6 mps 737 mmHg 41%
17:00 +27°C° 0 mm 6 mps 736 mmHg 45%
18:00 +26°C° 0.2 mm 6 mps 736 mmHg 51%
19:00 +24°C° 0.2 mm 6 mps 736 mmHg 57%
20:00 +23°C° 0.2 mm 5 mps 736 mmHg 63%
21:00 +21°C° 0.5 mm 4 mps 736 mmHg 72%
22:00 +20°C° 0.5 mm 4 mps 736 mmHg 81%
23:00 +18°C° 0.5 mm 3 mps 736 mmHg 90%

Tomorrow, 4 August, Wednesday

Time Temperature Precipitation Wind Pressure Humidity
00:00 +18°C° 0 mm 3 mps 736 mmHg 89%
01:00 +18°C° 0 mm 2 mps 736 mmHg 89%
02:00 +18°C° 0 mm 2 mps 736 mmHg 88%
03:00 +18°C° 0 mm 2 mps 737 mmHg 88%
04:00 +18°C° 0 mm 2 mps 737 mmHg 89%
05:00 +17°C° 0 mm 2 mps 737 mmHg 89%
06:00 +18°C° 0 mm 3 mps 737 mmHg 84%
07:00 +19°C° 0 mm 3 mps 738 mmHg 79%
08:00 +20°C° 0 mm 3 mps 738 mmHg 75%
09:00 +22°C° 0 mm 3 mps 738 mmHg 65%
10:00 +23°C° 0 mm 4 mps 738 mmHg 56%
11:00 +26°C° 0 mm 4 mps 738 mmHg 46%
12:00 +26°C° 0 mm 5 mps 738 mmHg 43%
13:00 +27°C° 0 mm 5 mps 738 mmHg 40%
14:00 +28°C° 0 mm 5 mps 738 mmHg 36%
15:00 +27°C° 0 mm 5 mps 738 mmHg 37%
16:00 +27°C° 0 mm 5 mps 738 mmHg 37%
17:00 +27°C° 0 mm 4 mps 738 mmHg 37%
18:00 +26°C° 0 mm 4 mps 738 mmHg 43%
19:00 +24°C° 0 mm 3 mps 738 mmHg 48%
20:00 +21°C° 0 mm 2 mps 738 mmHg 54%
21:00 +20°C° 0 mm 2 mps 738 mmHg 58%
22:00 +19°C° 0 mm 2 mps 738 mmHg 62%
23:00 +19°C° 0 mm 2 mps 738 mmHg 66%

Day after tomorrow, 5 August, Thursday

Time Temperature Precipitation Wind Pressure Humidity
00:00 +18°C° 0 mm 2 mps 738 mmHg 67%
01:00 +18°C° 0 mm 2 mps 738 mmHg 68%
02:00 +17°C° 0 mm 2 mps 738 mmHg 69%
03:00 +18°C° 0 mm 1 mps 738 mmHg 71%
04:00 +18°C° 0 mm 1 mps 738 mmHg 73%
05:00 +16°C° 0 mm 1 mps 738 mmHg 74%
06:00 +19°C° 0 mm 1 mps 738 mmHg 67%
07:00 +21°C° 0 mm 1 mps 738 mmHg 60%
08:00 +23°C° 0 mm 1 mps 738 mmHg 53%
09:00 +24°C° 0 mm 1 mps 738 mmHg 48%
10:00 +24°C° 0 mm 0 mps 738 mmHg 43%
11:00 +25°C° 0 mm 0 mps 738 mmHg 39%
12:00 +28°C° 0 mm 1 mps 738 mmHg 37%
13:00 +28°C° 0 mm 1 mps 738 mmHg 35%
14:00 +29°C° 0 mm 2 mps 737 mmHg 33%
15:00 +28°C° 0 mm 2 mps 737 mmHg 35%
16:00 +28°C° 0 mm 2 mps 737 mmHg 36%
17:00 +28°C° 0 mm 2 mps 737 mmHg 38%
18:00 +27°C° 0 mm 2 mps 737 mmHg 42%
19:00 +25°C° 0 mm 3 mps 737 mmHg 46%
20:00 +24°C° 0 mm 3 mps 737 mmHg 50%
21:00 +22°C° 0 mm 3 mps 737 mmHg 52%
22:00 +21°C° 0 mm 2 mps 737 mmHg 55%
23:00 +20°C° 0 mm 2 mps 737 mmHg 58%

6 August, Friday

Time Temperature Precipitation Wind Pressure Humidity
00:00 +19°C° 0 mm 2 mps 736 mmHg 59%
01:00 +19°C° 0 mm 2 mps 736 mmHg 60%
02:00 +19°C° 0 mm 3 mps 736 mmHg 61%
03:00 +18°C° 0 mm 3 mps 736 mmHg 60%
04:00 +18°C° 0 mm 3 mps 736 mmHg 60%
05:00 +18°C° 0 mm 3 mps 735 mmHg 60%
06:00 +19°C° 0 mm 3 mps 735 mmHg 59%
07:00 +20°C° 0 mm 2 mps 735 mmHg 58%
08:00 +21°C° 0 mm 2 mps 735 mmHg 57%
09:00 +23°C° 0 mm 1 mps 735 mmHg 54%
10:00 +25°C° 0 mm 1 mps 736 mmHg 50%
11:00 +26°C° 0 mm 1 mps 736 mmHg 47%
12:00 +28°C° 0 mm 1 mps 735 mmHg 43%
13:00 +30°C° 0 mm 2 mps 735 mmHg 39%
14:00 +32°C° 0 mm 2 mps 735 mmHg 34%
15:00 +33°C° 0 mm 3 mps 735 mmHg 36%
16:00 +31°C° 0 mm 3 mps 734 mmHg 37%
17:00 +32°C° 0 mm 4 mps 734 mmHg 38%
18:00 +29°C° 0.5 mm 4 mps 734 mmHg 50%
19:00 +26°C° 0.5 mm 3 mps 734 mmHg 61%
20:00 +22°C° 0.5 mm 3 mps 734 mmHg 73%
21:00 +21°C° 0.7 mm 3 mps 734 mmHg 77%
22:00 +20°C° 0.7 mm 2 mps 734 mmHg 81%
23:00 +19°C° 0.7 mm 2 mps 734 mmHg 84%

7 August, Saturday

Time Temperature Precipitation Wind Pressure Humidity
00:00 +19°C° 0.4 mm 2 mps 734 mmHg 86%
01:00 +18°C° 0.4 mm 2 mps 734 mmHg 88%
02:00 +18°C° 0.4 mm 2 mps 734 mmHg 90%
03:00 +18°C° 0 mm 2 mps 734 mmHg 92%
04:00 +17°C° 0 mm 2 mps 734 mmHg 94%
05:00 +17°C° 0 mm 2 mps 734 mmHg 97%
06:00 +17°C° 0 mm 3 mps 735 mmHg 93%
07:00 +18°C° 0 mm 4 mps 735 mmHg 90%
08:00 +19°C° 0 mm 5 mps 735 mmHg 86%
09:00 +20°C° 0 mm 5 mps 735 mmHg 78%
10:00 +22°C° 0 mm 5 mps 735 mmHg 69%
11:00 +23°C° 0 mm 5 mps 736 mmHg 61%
12:00 +25°C° 0 mm 5 mps 736 mmHg 55%
13:00 +25°C° 0 mm 5 mps 736 mmHg 48%
14:00 +26°C° 0 mm 5 mps 736 mmHg 42%
15:00 +26°C° 0 mm 5 mps 736 mmHg 43%
16:00 +25°C° 0 mm 5 mps 736 mmHg 43%
17:00 +25°C° 0 mm 5 mps 736 mmHg 44%
18:00 +22°C° 0 mm 4 mps 736 mmHg 49%
19:00 +21°C° 0 mm 4 mps 736 mmHg 54%
20:00 +20°C° 0 mm 3 mps 736 mmHg 59%
21:00 +19°C° 0.1 mm 3 mps 736 mmHg 64%
22:00 +18°C° 0.1 mm 3 mps 736 mmHg 70%
23:00 +17°C° 0.1 mm 2 mps 736 mmHg 75%

8 August, Sunday

Time Temperature Precipitation Wind Pressure Humidity
00:00 +16°C° 0 mm 2 mps 736 mmHg 77%
01:00 +14°C° 0 mm 3 mps 735 mmHg 78%
02:00 +14°C° 0 mm 3 mps 735 mmHg 80%
03:00 +13°C° 0 mm 3 mps 735 mmHg 82%
04:00 +13°C° 0 mm 3 mps 735 mmHg 84%
05:00 +13°C° 0 mm 3 mps 736 mmHg 86%
06:00 +14°C° 0 mm 3 mps 736 mmHg 81%
07:00 +16°C° 0 mm 3 mps 736 mmHg 75%
08:00 +17°C° 0 mm 4 mps 736 mmHg 70%
09:00 +18°C° 0.2 mm 4 mps 736 mmHg 70%
10:00 +17°C° 0.2 mm 5 mps 736 mmHg 70%
11:00 +17°C° 0.2 mm 6 mps 736 mmHg 70%
12:00 +17°C° 0.2 mm 5 mps 736 mmHg 72%
13:00 +16°C° 0.2 mm 5 mps 736 mmHg 74%
14:00 +16°C° 0.2 mm 5 mps 736 mmHg 76%
15:00 +16°C° 0 mm 5 mps 736 mmHg 75%
16:00 +16°C° 0 mm 5 mps 736 mmHg 75%
17:00 +16°C° 0 mm 5 mps 737 mmHg 74%
18:00 +15°C° 0 mm 5 mps 737 mmHg 77%
19:00 +15°C° 0 mm 4 mps 737 mmHg 80%
20:00 +15°C° 0 mm 4 mps 737 mmHg 83%
21:00 +14°C° 0 mm 4 mps 737 mmHg 85%
22:00 +14°C° 0 mm 4 mps 737 mmHg 88%
23:00 +14°C° 0 mm 4 mps 737 mmHg 90%
Show more